Terminal Aerodrome Forecast
Issued by NWS

Home | Current Version | Previous Version | Text Only | Print | Product List | Glossary On
Versions: 1 2 3 4 5 6 7 8 9 10 11 12 13 14 15 16 17 18 19 20 21 22 23 24 25 26 27 28 29 30 31 32 33 34 35 36 37 38 39 40 41
000
FTUS43 KMKX 050520
TAFUES
TAF
KUES 050520Z 0506/0606 07004KT P6SM BKN150
     FM051000 06005KT 6SM SHRA OVC050
     FM051300 07007KT 3SM SHRA BR OVC015
     FM051700 08010G17KT 3SM BR OVC008
     FM060100 07007KT 3SM BR OVC003=

USA.gov is the U.S. government's official web portal to all federal, state and local government web resources and services.